This is the latest recevied weather packets stored in our database for station/object W1REE. If no packets are shown the sender has not sent any weather packets the latest 10 day(s).
| Time | Temp. | Humidity | Pressure | Rain* | Wind** | Luminosity | Snow |
|---|---|---|---|---|---|---|---|
| 1777537594 | 2.22° C | 95% | 1022.5 hPa | 1.27 mm | - | 0 W/m² | - |
| 1777537290 | 2.22° C | 95% | 1022.8 hPa | 1.78 mm | - | 0 W/m² | - |
| 1777536986 | 2.22° C | 94% | 1022.9 hPa | 1.78 mm | - | 0 W/m² | - |
| 1777536684 | 2.22° C | 94% | 1022.9 hPa | 1.27 mm | - | 0 W/m² | - |
| 1777536381 | 2.22° C | 94% | 1022.9 hPa | 3.05 mm | - | 0 W/m² | - |
| 1777536077 | 2.22° C | 93% | 1022.8 hPa | 3.05 mm | - | 0 W/m² | - |
| 1777535773 | 2.78° C | 93% | 1022.8 hPa | 3.05 mm | - | 0 W/m² | - |
| 1777535470 | 2.78° C | 94% | 1023.1 hPa | 3.56 mm | - | 0 W/m² | - |
| 1777535167 | 2.78° C | 94% | 1022.9 hPa | 3.05 mm | - | 0 W/m² | - |
| 1777534863 | 2.78° C | 94% | 1023 hPa | 3.05 mm | - | 0 W/m² | - |
| 1777534560 | 2.78° C | 94% | 1023 hPa | 1.78 mm | - | 0 W/m² | - |
| 1777534258 | 2.78° C | 94% | 1023.1 hPa | 1.27 mm | - | 0 W/m² | - |
| 1777533956 | 2.78° C | 94% | 1023 hPa | 1.27 mm | - | 0 W/m² | - |
| 1777533653 | 3.33° C | 93% | 1023 hPa | 1.78 mm | - | 0 W/m² | - |
| 1777533349 | 3.33° C | 93% | 1023.2 hPa | 1.78 mm | - | 0 W/m² | - |
| 1777533045 | 3.33° C | 93% | 1023.2 hPa | 1.78 mm | - | 0 W/m² | - |
| 1777532743 | 3.33° C | 92% | 1023.1 hPa | 1.27 mm | - | 0 W/m² | - |
| 1777532438 | 3.33° C | 92% | 1023.1 hPa | 3.05 mm | - | 0 W/m² | - |
| 1777532136 | 3.33° C | 92% | 1023.1 hPa | 3.05 mm | - | 0 W/m² | - |
| 1777531831 | 3.33° C | 92% | 1023 hPa | 1.27 mm | - | 0 W/m² | - |
| 1777531527 | 3.89° C | 92% | 1023.2 hPa | 0 mm | - | 0 W/m² | - |
| 1777531225 | 3.89° C | 92% | 1023.1 hPa | 1.78 mm | - | 0 W/m² | - |
| 1777530923 | 3.89° C | 93% | 1023.1 hPa | 1.78 mm | - | 0 W/m² | - |
| 1777530620 | 3.89° C | 93% | 1023.2 hPa | 1.27 mm | - | 0 W/m² | - |
| 1777530317 | 3.89° C | 93% | 1023.1 hPa | 1.27 mm | - | 0 W/m² | - |
* Rain latest hour (hover to see other rain measurements)
** Current wind speed in m/s (hover to see current wind gust speed)